Location: Arroyo de Fuente Vieja
(40.4902°N, 4.1175°W)
Time: 11:01:51
(UTC+00:00)

Cosmos 1844 Rocket - Pass Details

Date: 18 April 2024
Orbit: 825 x 842 km, 71.0° (Epoch: 27 May)

Event Time Altitude Azimuth Distance (km) Brightness Sun altitude
Rises 23:26:52 0° 343° (NNW) 3,386 6.8 -37.0°
Reaches altitude 10° 23:29:32 10° 352° (N) 2,445 5.8 -37.2°
Enters shadow 23:32:32 27° 17° (NNE) 1,556 4.4 -37.3°
